Showing default

DIAPASON (D1-A), 2016

Orbit data source: Space-Track

DIAPASON (D1-A), 2016 is a payload satellite owned by CNES (FR) in LEO that was launched on Thu, 17 Feb 1966 UTC via a DIAMANT A launch vehicle from the Hamma Guira Space Track Range (HGSTR). Payload-class satellites include a variety of spacecraft equipped with specific instruments for various scientific and technological missions. These include communications satellites like Starlink; space stations such as the ISS; scientific satellites like the Hubble; Earth observation satellites from companies like Planet Labs, Umbra, and HawkEye 360; GPS; miniature CubeSats for education and research; and military/defense satellites.

Loading next visibility...
Identifier
2016, 1966-013A
Orbit
LEO
Country
Flag of FRFR
Related business
Manufacturer
CNES
Mission
Spacecraft
Bus & Motor
D-1, Unknown motor
Mass
19 kg wet, 19 kg dry
Launch date (UTC)
1966-02-17 (60 years ago)
Launch vehicle
DIAMANT A
Launch site
Hamma Guira Space Track Range (HGSTR)
Object type
Payload
Rocket body
Debris
Shape & HBR
CYL + 4 PAN + 4 ANT, 0.8 m
Radar Cross Section
Large (>1 m²)

Expand to show TLE details & history
Last TLE update: 8 hours ago

TLE from 8 hours ago
0 DIAPASON (D1-A)
1 02016U 66013A   26207.27314166  .00000819  00000-0  22571-3 0  9990
2 02016  34.0944 160.3867 1157690 278.6927  68.4521 12.66590621745400
Epoch: 2026-07-26T06:33Z
TLE epoch observation values (Epoch: 2026-07-26T06:33:19.439Z)
Latitude
-0.00001°
Longitude
118.08225°
Altitude
1,159.707 km
Speed
7.384 km/s
True Right ascension
10h 41m 32s
True Declination
0° 00' 00"
Sunlit
Object was in daylight at epoch
Visualization orbit readout
Latitude
Unknown
Longitude
Unknown
Altitude
Unknown
Speed
Unknown
Apparent Right ascension
Unknown
Apparent Declination
Unknown
Sunlit
N/A
Visualization observer readout
Local Sidereal Time
03:27:47
Azimuth
Unknown
Elevation
Unknown
Doppler factor
Unknown
Orbital elements
Apogee altitude
2,299.263 km
Perigee altitude
498.579 km
Semi-major axis
7,777.058 km
Eccentricity
0.11577
Inclination
34.0944°
RAAN
160.3867°
Arg. of periapsis
278.6927°
True anomaly
81.37102°
Mean anomaly
68.4521°
Eccentric anomaly
74.85479°
Mean motion
3.16461 °/min
Orbital period
113.76 mins
BSTAR
0.00022571
Loading maneuver chart data...
Computing Atmospheric mass density...

Documentation

Showing up to 5 results
|